Terminal Aerodrome Forecast
Issued by NWS St Louis, MO

Home | Current Version | Previous Version | Text Only | Print | Product List | Glossary On
Versions: 1 2 3 4 5 6 7 8 9 10 11 12 13 14
000
FTUS43 KLSX 180900 AAA
TAFCOU
TAF AMD
KCOU 180921Z 1809/1906 35003KT P6SM BKN080
     FM181000 35003KT 6SM BR FEW080
     FM181230 02005KT P6SM SKC=

USA.gov is the U.S. government's official web portal to all federal, state and local government web resources and services.